RH
17 12 4 19 15 12 14 14 27 45 52 54 57 53 58 63 64 72 98 99 99 97 96 95 85 72 71 75 78 78 75 74 69 58 44 36 29 24 28 22 13 12 13 12 11 11 14 18 20
19 8 12 15 15 15 13 13 24 44 49 49 53 47 45 47 76 95 97 96 96 92 96 98 90 81 79 83 84 80 79 75 59 44 34 27 22 27 22 15 14 14 13 12 13 16 20 22 24
14 9 13 10 10 13 14 22 39 41 43 39 49 59 59 54 67 84 79 85 83 99 98 95 90 85 89 90 85 82 77 62 46 35 30 21 26 25 17 15 14 14 19 21 21 21 24 24 22
11 16 15 12 10 9 16 30 35 36 39 41 52 52 56 44 42 51 71 64 90 90 93 87 88 94 98 90 86 79 66 54 40 29 28 18 25 22 14 13 22 24 20 19 18 19 21 25 25
13 13 11 11 11 11 17 30 31 30 30 36 40 49 47 82 91 66 62 84 99 94 95 96 99 100 94 90 80 72 62 51 36 30 30 17 23 16 19 28 27 24 24 22 22 23 24 25 27
12 13 12 12 11 15 12 27 33 30 27 31 37 46 56 92 93 72 81 90 91 89 91 96 98 93 90 82 72 66 61 50 29 34 24 19 18 29 32 31 26 29 26 27 27 28 31 35 36
13 10 10 11 18 22 19 30 30 29 28 31 40 46 94 96 90 92 99 89 75 93 88 92 92 90 85 80 73 68 57 40 31 35 29 24 32 36 33 30 31 30 31 35 37 40 44 44 40
14 10 11 14 21 26 27 33 30 23 27 42 46 45 89 100 96 93 87 90 84 89 90 88 85 76 73 75 75 58 47 39 40 34 37 39 39 35 33 34 33 32 37 42 46 47 46 43 42
17 10 12 20 23 32 33 29 28 29 38 44 45 53 73 96 93 99 98 93 89 92 96 96 95 87 78 92 69 64 45 37 37 46 48 50 80 68 70 35 33 36 39 41 42 44 44 40 58
14 12 14 15 19 20 19 20 28 36 39 40 53 71 89 90 92 98 100 96 96 96 96 89 75 76 72 88 82 64 52 79 82 81 61 83 62 66 42 42 36 38 39 40 38 35 37 59 63
14 12 10 13 18 16 16 17 23 27 34 33 53 73 93 87 92 100 100 97 99 99 100 100 98 57 87 81 80 73 74 68 65 56 66 74 64 71 86 77 74 75 50 70 59 57 59 38 42
15 12 10 7 6 15 16 19 24 22 21 30 59 77 90 95 96 85 85 73 79 90 87 51 77 68 48 73 71 45 65 57 56 61 62 63 62 60 62 75 76 57 65 49 52 60 43 42 40
14 11 10 7 10 17 21 24 24 23 34 47 65 75 77 76 73 65 62 65 70 74 85 76 39 30 38 57 59 65 69 71 68 67 58 56 63 71 80 73 67 59 57 56 59 58 52 47 48
12 9 8 9 13 13 19 21 17 21 41 50 62 62 66 72 62 61 59 61 63 75 44 46 52 57 78 78 76 73 65 64 69 74 81 78 68 60 67 73 64 60 61 61 54 41 39 44 40
10 8 8 10 11 11 9 11 20 32 42 50 50 53 59 60 58 52 50 51 60 77 71 50 62 69 73 66 60 58 53 60 67 65 73 74 73 69 77 60 62 59 48 39 38 40 50 48 47
9 8 10 13 9 12 10 11 23 36 35 41 48 57 60 60 54 53 55 50 59 80 75 56 46 64 66 59 54 52 59 62 64 55 56 60 61 65 63 48 41 39 37 36 49 54 50 50 52
11 10 10 11 16 10 8 11 26 39 33 35 44 50 53 58 61 62 54 51 62 77 76 73 61 54 50 54 48 62 68 64 57 52 47 46 43 43 42 38 38 38 40 45 49 56 55 52 54
12 9 8 9 18 11 14 23 26 38 36 35 38 44 48 52 60 64 56 59 67 82 87 65 63 60 64 64 60 69 67 55 55 46 38 39 42 41 40 44 43 45 58 57 60 59 60 62 66
9 11 10 14 24 23 25 25 28 37 40 42 41 42 44 52 68 68 64 75 79 88 82 61 62 62 74 57 63 65 65 57 54 36 37 40 43 42 44 56 60 62 66 73 70 64 60 60 66
11 11 17 22 25 22 25 32 32 34 40 41 42 45 50 64 72 85 86 86 87 84 83 84 73 82 70 67 64 61 63 50 35 40 41 45 46 48 54 57 65 69 67 68 79 72 58 47 63
18 16 22 16 25 23 24 30 34 41 44 49 47 48 55 62 72 83 89 91 91 90 90 84 77 67 65 54 46 41 41 44 53 57 56 53 48 50 56 65 66 68 69 66 71 69 72 60 57
19 21 21 25 22 20 24 22 35 40 45 46 52 54 60 68 74 79 84 89 87 89 85 72 64 55 41 43 48 48 55 55 53 56 62 65 64 51 52 65 58 59 62 64 71 71 71 70 52
25 24 23 22 21 23 24 22 34 39 45 47 51 56 62 67 67 68 68 69 65 57 56 50 41 42 43 46 48 52 55 60 62 64 62 63 60 62 60 60 65 63 60 69 84 86 74 67 66
26 25 25 24 24 29 21 24 21 37 34 42 47 51 55 56 53 49 51 50 50 58 41 43 44 47 48 49 52 53 47 45 43 38 35 30 27 26 31 38 62 73 74 89 89 82 82 77 68
25 24 28 28 32 32 32 29 18 22 29 36 43 44 50 49 42 42 45 45 53 60 51 52 52 52 54 57 48 39 37 34 30 24 28 24 28 30 34 31 54 73 86 96 91 90 80 77 68
25 23 25 33 38 22 33 26 18 24 27 34 39 40 44 44 45 46 45 49 57 61 59 54 57 58 52 44 40 37 29 26 31 28 24 40 41 46 56 60 77 93 98 98 95 96 81 74 65
27 28 27 39 46 40 23 24 24 27 28 33 34 37 40 42 47 48 54 57 62 62 62 62 55 46 43 42 49 29 27 29 28 35 39 40 45 53 67 82 94 100 99 97 92 75 72 68 62
24 24 32 34 45 39 24 30 23 33 31 31 32 37 37 40 46 54 59 62 62 67 63 53 47 44 60 59 33 30 33 36 33 28 22 24 32 52 72 83 97 98 97 86 76 67 61 61 56
28 26 28 28 38 29 24 14 26 27 29 32 34 36 37 42 49 58 62 66 66 64 52 49 46 53 48 36 30 33 35 35 33 41 32 25 22 65 71 80 88 90 79 74 83 65 60 59 58
24 23 20 24 29 42 49 20 26 32 32 29 32 36 39 46 51 58 63 70 70 56 49 43 46 44 38 33 32 34 34 36 43 55 56 52 59 67 76 85 86 82 79 83 67 60 60 58 60
Wind_Speed
7 5 3 3 6 6 9 6 5 10 9 11 9 10 14 15 6 2 15 13 20 22 22 22 21 20 18 16 13 11 9 9 9 9 9 8 8 7 9 10 10 9 8 8 8 9 10 10 12
7 5 3 4 7 9 7 2 9 12 21 16 14 10 13 7 7 12 13 16 20 21 22 22 21 19 18 16 12 10 9 10 10 9 9 9 8 10 10 10 9 8 7 7 7 10 11 12 13
6 9 7 4 8 11 3 6 16 20 16 12 6 8 4 3 3 14 15 21 17 19 22 22 21 20 19 14 12 10 10 10 10 9 9 8 9 11 10 9 8 6 7 9 10 12 12 14 16
6 6 5 8 11 2 2 16 18 16 13 13 16 7 4 8 6 16 16 18 22 21 22 22 21 19 17 14 12 11 11 10 9 8 8 8 9 10 10 8 8 9 11 13 14 15 15 18 20
8 6 8 10 7 1 5 20 19 10 11 13 10 11 14 11 7 17 17 20 19 18 20 19 19 14 13 13 11 11 11 10 8 9 8 8 9 9 9 9 10 11 13 14 15 15 16 18 20
10 6 6 11 7 7 11 19 11 9 10 9 4 14 11 8 12 14 15 17 17 17 18 17 14 13 13 11 11 10 10 10 8 8 7 8 9 8 9 10 10 11 13 13 14 13 13 15 18
11 7 7 2 4 7 8 13 7 8 4 7 5 10 7 15 16 17 20 19 19 18 18 17 16 15 12 10 9 10 9 8 7 6 6 7 8 8 8 8 8 10 9 10 10 10 9 11 15
7 5 6 6 7 9 14 15 11 11 4 2 9 6 7 15 17 20 19 19 18 16 16 15 13 10 9 8 9 9 9 7 6 6 7 7 6 6 7 6 6 7 6 5 5 5 6 9 12
4 6 7 9 12 12 15 9 7 6 6 10 5 4 11 23 22 21 19 18 19 16 14 12 11 10 10 9 8 6 7 7 6 5 6 6 4 3 2 4 5 5 4 3 4 4 6 9 14
9 7 5 12 14 10 12 17 14 9 13 7 7 13 24 23 23 22 19 19 17 15 15 14 13 11 10 7 7 6 7 5 4 5 6 3 2 2 3 2 2 1 1 1 4 6 9 11 11
8 7 4 4 7 8 6 12 11 9 13 8 13 26 24 22 20 19 17 17 15 14 13 12 11 9 9 7 8 7 6 6 6 6 5 2 1 3 5 4 3 4 5 4 6 7 9 16 18
8 6 2 2 7 8 11 12 8 3 11 6 19 27 26 22 19 18 17 16 14 12 11 11 10 10 10 9 9 10 9 7 6 5 5 4 2 3 7 6 6 6 6 9 9 9 18 21 24
11 2 1 4 9 11 12 9 14 13 11 17 23 23 22 19 17 16 15 15 14 13 13 13 13 14 13 13 11 9 7 4 5 5 6 7 6 4 8 13 11 10 11 12 12 12 16 18 15
4 3 6 6 11 9 14 8 9 10 7 17 20 18 18 18 17 16 15 15 14 14 14 14 13 14 13 12 9 4 4 7 8 11 13 12 11 15 11 18 14 13 15 17 16 19 21 16 18
11 13 13 10 8 7 10 10 8 5 8 17 18 17 16 14 15 14 13 15 16 14 15 16 16 16 13 15 11 4 14 19 14 13 15 14 12 9 10 12 13 14 17 19 20 18 14 14 15
6 6 9 7 6 3 7 11 9 3 12 16 17 16 15 13 13 13 13 15 16 16 16 16 15 15 13 11 9 13 21 20 10 10 8 4 2 2 9 11 14 17 19 18 15 13 14 16 17
5 8 12 7 4 5 5 11 8 4 11 13 14 15 14 13 12 12 13 16 16 16 16 16 14 11 9 8 15 16 9 2 3 7 5 1 1 5 9 13 17 17 16 15 14 11 15 15 17
9 10 14 13 4 6 8 7 6 5 11 13 14 14 14 13 12 13 13 15 17 18 17 15 10 4 8 10 7 4 1 2 4 4 3 4 7 9 11 13 16 14 9 10 11 15 15 16 16
7 8 13 9 5 6 6 7 5 6 9 11 13 14 14 13 11 13 15 15 18 19 17 12 8 6 5 6 6 5 2 5 8 5 6 9 11 12 13 9 11 12 12 14 16 16 18 20 18
6 10 9 6 4 3 8 7 6 4 5 8 12 13 14 13 13 13 14 16 18 17 15 13 10 8 9 7 5 4 4 5 5 8 11 13 15 14 12 15 14 14 16 17 16 16 18 18 16
6 6 10 7 7 4 10 7 7 5 7 8 8 10 12 14 16 16 17 18 18 18 16 14 14 13 10 9 5 5 3 4 3 5 6 11 15 16 17 17 18 19 18 18 16 14 13 13 14
7 3 9 13 12 8 7 5 8 8 8 10 12 13 15 17 18 19 20 19 18 17 16 17 16 13 13 11 8 6 1 2 7 8 8 11 16 21 23 20 24 23 20 18 14 12 12 10 15
3 11 10 8 7 6 10 8 10 9 12 13 15 16 17 18 19 19 19 20 19 21 19 19 19 17 14 10 4 2 1 4 6 8 13 15 17 18 19 21 20 20 19 16 12 10 8 11 14
13 11 7 3 3 7 3 7 7 11 16 16 19 18 19 19 19 20 19 19 18 17 21 20 17 15 11 6 4 3 8 10 10 13 15 16 18 19 19 19 20 19 16 13 9 7 10 13 15
7 11 5 6 6 8 1 6 12 7 8 20 22 22 22 22 22 22 21 20 18 18 19 16 14 11 8 3 3 8 11 11 10 14 14 19 18 19 19 20 18 14 13 9 8 8 18 11 12
9 7 4 5 6 6 3 7 3 1 11 19 24 24 24 23 22 21 21 19 18 19 17 16 13 8 4 1 5 8 8 10 11 16 19 16 17 18 20 18 12 8 7 7 11 13 13 12 11
5 7 3 2 0 4 6 6 9 6 10 18 25 24 25 25 24 22 20 19 19 19 18 15 12 6 3 3 8 6 9 15 18 19 19 18 18 18 17 14 7 7 7 13 12 14 12 10 12
3 7 3 3 3 5 4 7 7 9 14 18 23 26 26 25 23 21 19 18 19 19 19 15 9 6 4 7 4 6 10 15 19 21 20 20 20 18 15 11 9 10 11 14 17 13 11 11 13
4 4 1 0 2 3 3 1 3 1 11 19 26 27 27 26 24 22 20 19 20 19 18 12 9 3 3 3 3 6 11 17 20 18 19 19 20 16 13 11 13 14 18 19 16 11 13 13 15
2 3 6 4 4 0 2 4 3 1 4 15 23 25 24 24 23 23 22 22 21 21 18 12 7 5 7 4 4 9 15 18 16 15 17 18 18 16 13 12 15 18 20 16 10 12 14 17 19
Wind_Direction
212 219 242 237 237 238 256 215 85 137 88 74 77 86 82 26 356 46 141 146 151 152 159 159 167 166 161 165 161 155 148 146 145 137 127 129 128 126 115 109 105 97 82 65 50 40 32 25 24
192 186 178 246 252 232 225 131 190 94 109 95 77 77 63 57 65 114 132 150 154 153 158 163 168 169 171 170 161 153 154 152 143 136 137 134 125 116 112 107 101 88 71 57 42 39 33 29 28
197 175 211 231 239 255 208 148 116 127 122 120 95 69 67 89 83 152 153 155 153 161 159 168 166 175 175 166 159 157 155 148 145 140 140 132 123 119 117 109 99 86 72 67 62 60 53 49 43
186 192 230 242 228 221 121 132 140 124 130 119 129 115 87 137 123 167 169 171 174 166 165 164 170 178 170 165 160 156 154 153 145 145 145 134 127 127 122 113 98 92 88 81 74 68 58 48 40
187 226 232 237 243 214 179 152 157 125 123 136 183 150 156 188 189 177 180 176 172 161 164 166 176 168 165 161 157 155 154 153 154 155 151 139 139 135 128 118 110 101 91 83 78 70 60 51 43
193 248 223 229 181 189 195 170 171 156 97 121 184 150 149 184 160 175 185 168 133 161 165 173 170 169 168 163 155 159 162 163 164 157 150 145 139 137 132 125 118 104 91 88 84 78 71 61 42
245 218 248 245 176 175 159 158 95 86 88 177 156 152 149 162 173 159 157 159 155 160 162 163 167 166 166 160 161 166 164 168 168 155 141 143 142 141 134 126 128 115 95 86 82 77 61 47 31
233 257 203 203 185 114 147 123 130 91 346 229 188 180 165 168 155 156 155 151 159 156 151 154 151 156 159 160 156 169 166 173 169 151 141 144 141 145 140 135 137 127 114 83 65 51 31 20 14
212 230 205 157 125 130 132 156 168 162 199 190 164 105 149 147 151 149 148 148 150 146 145 145 149 154 152 139 165 159 165 167 159 144 143 142 144 160 149 176 162 151 112 72 38 13 358 356 353
226 238 189 144 132 154 157 204 170 180 179 178 115 115 143 144 151 149 149 148 143 147 163 164 159 156 155 148 143 145 153 158 150 145 155 124 177 223 209 213 190 206 153 4 2 356 348 355 339
196 245 54 149 191 208 203 143 166 189 188 168 153 145 148 148 156 150 148 151 155 158 166 163 158 161 139 145 132 131 126 129 148 152 166 176 257 298 306 289 295 297 306 325 334 340 338 325 327
227 250 277 61 210 210 168 144 151 71 53 115 150 151 149 157 159 155 154 153 155 152 154 145 140 145 144 125 123 124 129 127 140 189 193 211 238 289 291 283 281 291 294 310 322 327 317 315 320
235 222 295 161 173 148 146 127 122 61 88 119 141 150 152 152 151 150 157 153 150 144 146 145 145 142 133 128 123 120 127 162 180 204 229 236 235 270 309 287 274 281 297 308 313 318 319 317 320
154 128 127 125 116 102 128 103 153 55 99 124 141 149 153 152 153 152 156 156 149 155 154 149 141 131 118 117 118 123 25 326 287 253 244 240 270 293 254 269 275 287 297 300 305 305 310 313 316
131 113 114 124 137 108 127 106 53 11 136 140 147 148 152 152 156 157 155 162 161 158 159 160 156 145 131 107 74 13 326 314 313 294 275 274 280 280 256 251 275 292 295 297 307 319 320 316 313
160 166 129 69 145 133 249 120 60 68 158 154 149 152 153 161 166 171 171 167 168 167 169 172 168 164 157 149 4 293 268 295 346 25 45 48 18 269 251 273 289 297 301 304 315 318 313 312 311
185 165 139 123 45 161 293 129 52 117 162 155 155 156 156 157 168 176 176 180 177 174 176 181 190 190 201 262 281 275 282 34 17 3 353 308 249 249 273 289 304 303 299 303 308 311 312 310 303
169 140 165 153 108 144 124 106 93 121 166 164 159 165 165 166 174 183 176 176 175 176 175 197 210 240 237 281 295 292 174 236 310 315 274 281 284 288 293 302 306 300 311 313 310 313 309 311 301
130 137 134 121 111 110 120 116 105 125 158 168 168 170 172 173 170 172 178 169 164 169 183 190 211 196 244 151 130 142 175 284 301 280 291 303 303 304 305 318 319 318 313 304 309 307 306 306 299
147 157 140 113 130 202 157 113 107 129 147 174 178 178 173 165 162 161 163 163 166 163 166 172 176 175 158 145 143 170 232 249 265 297 301 301 303 308 317 310 311 308 306 305 298 305 308 304 306
124 184 167 184 160 188 171 149 157 112 130 143 154 168 171 168 162 158 156 156 157 159 161 160 157 154 154 166 171 190 221 277 305 315 317 303 301 306 311 309 307 307 308 304 294 295 306 301 305
168 160 150 154 181 193 211 206 177 165 149 156 152 154 152 151 147 146 150 156 156 158 156 155 153 164 173 169 178 187 185 287 297 310 314 309 309 308 306 305 303 304 303 296 291 293 301 304 308
85 142 138 163 204 210 194 258 119 176 184 173 164 155 153 152 155 154 151 152 153 156 157 162 169 179 184 191 202 235 350 21 353 338 325 320 316 312 308 305 299 297 297 286 278 280 290 306 312
146 138 129 163 214 241 252 262 185 186 208 179 174 173 167 162 157 153 154 156 156 159 170 172 175 181 191 209 218 315 335 334 338 331 329 321 316 312 308 302 298 291 284 273 266 270 301 303 306
220 181 186 227 211 248 80 254 263 206 200 184 179 174 171 166 164 165 169 169 169 169 174 172 175 182 168 173 354 342 337 334 343 337 336 333 327 323 318 312 302 286 269 247 257 275 309 297 293
197 236 228 240 224 260 176 244 257 227 186 188 184 175 172 173 175 176 176 180 177 177 172 173 167 160 151 85 358 350 349 352 355 346 343 336 329 326 323 319 305 264 248 245 285 308 302 290 290
158 219 43 149 52 268 256 241 242 181 189 190 183 178 181 183 183 182 186 184 178 171 172 164 153 155 129 51 334 336 353 358 355 351 341 334 332 329 325 323 301 247 261 298 303 303 291 286 298
286 127 183 212 240 246 205 273 263 190 190 189 186 189 189 189 188 189 184 177 172 166 170 165 157 147 323 316 301 348 360 355 345 337 337 336 332 331 327 311 280 266 302 300 299 290 285 292 301
154 189 78 14 290 280 294 267 45 256 190 193 195 195 193 193 192 190 183 176 170 171 171 167 171 228 301 237 312 340 345 338 332 337 337 334 332 325 318 301 276 279 293 294 286 278 284 287 301
274 202 199 239 182 150 325 288 135 175 226 203 203 201 200 199 194 190 184 177 175 177 176 178 180 189 232 259 308 330 325 324 326 333 334 331 327 319 308 296 288 289 293 289 272 277 288 289 298